Theta_e
356 356 357 356 356 355 355 356 356 357 357 356 355 355 354 353 352 351 350 349 348 348 347 346 343 342 340 341 339 339 339 338 339 337 336 336 337 337 336 337 336 335 335 335 336 335 335 333 333 334 334 333 333 333 333 333 333 333 333 330 329 330 329 326 323 324 326 327 330 331 333 333 332 330 331 331 332 332 338 334 334 332 332 332 332
355 356 356 357 356 356 356 357 357 357 357 357 356 355 355 353 353 352 350 349 348 347 347 346 344 342 339 340 339 339 339 339 339 338 335 335 335 337 336 336 336 335 335 334 335 335 334 333 332 333 334 333 332 332 333 332 332 330 330 332 330 331 332 329 326 323 325 325 328 329 331 333 333 330 331 331 331 333 332 333 333 333 333 333 332
357 357 356 356 356 357 357 357 357 357 356 356 356 356 355 354 353 352 350 349 349 347 347 345 344 343 340 339 340 339 339 339 339 339 336 334 334 335 336 336 335 335 334 334 334 334 332 332 332 333 335 332 332 332 333 332 333 332 331 332 331 331 332 332 328 325 325 327 326 327 328 331 331 332 332 332 333 331 330 331 332 334 335 334 334
358 357 357 356 357 357 357 358 357 357 356 356 356 357 356 355 354 352 351 350 348 347 347 345 344 343 341 340 339 339 339 339 339 339 338 336 334 334 335 335 335 335 335 335 334 334 333 331 331 332 334 332 332 331 332 332 332 332 331 331 332 331 331 332 331 328 326 325 323 327 327 328 330 331 333 333 332 331 331 331 329 331 332 333 332
358 358 357 356 356 356 357 357 356 356 356 356 356 357 357 356 355 353 351 350 348 347 346 346 344 343 342 340 339 339 340 339 338 338 338 338 336 335 335 334 335 335 335 335 339 334 333 332 332 333 333 332 331 332 332 331 332 332 331 330 331 332 333 333 332 330 327 325 325 326 328 328 330 330 330 331 331 330 329 329 331 330 329 330 331
359 358 357 356 356 356 356 357 356 356 356 356 356 357 357 356 355 354 352 350 348 347 346 345 344 343 342 341 340 340 340 340 339 338 338 338 338 336 336 335 335 335 335 334 335 335 334 333 333 333 333 332 331 332 332 331 331 331 330 330 331 331 329 330 330 329 328 328 327 326 323 328 326 327 329 330 329 328 327 328 327 327 326 327 328
358 358 357 357 356 356 356 356 357 356 356 356 356 357 357 357 356 354 353 352 349 347 346 345 345 344 343 342 340 340 340 340 340 339 338 338 338 337 336 335 335 335 335 335 335 335 335 334 334 334 333 333 332 331 332 332 332 331 332 331 331 330 329 328 329 328 328 328 326 326 325 325 326 325 327 327 329 328 326 325 325 325 325 326 326
358 358 357 356 356 356 356 357 357 357 357 357 356 356 357 357 356 355 354 352 351 349 347 345 345 344 343 342 342 341 340 339 339 339 339 337 337 337 337 336 335 334 335 336 335 335 335 335 335 335 334 333 333 332 333 332 332 331 332 331 331 329 328 328 328 328 327 326 326 325 322 323 321 325 325 324 323 322 325 326 324 324 324 323 325
357 357 357 356 356 357 357 357 357 357 357 356 356 355 356 356 356 356 354 353 352 351 349 347 345 344 343 342 342 341 340 340 340 340 339 338 337 337 337 337 336 334 334 335 336 336 335 335 335 335 337 341 342 341 338 338 333 331 331 331 330 329 329 328 328 327 326 325 325 323 320 320 321 320 320 319 320 322 322 324 323 324 324 324 326
356 357 357 357 357 357 357 357 357 357 356 356 355 355 355 356 356 355 355 354 353 352 350 348 346 344 343 342 341 341 341 341 336 330 333 339 338 338 337 337 335 335 334 334 334 335 336 336 337 344 345 346 347 346 342 341 340 336 332 330 331 330 328 327 326 326 326 324 323 322 321 321 322 321 321 321 321 321 320 319 319 319 319 321 322
355 356 356 357 358 357 357 357 357 356 356 356 356 355 355 355 355 355 355 354 354 353 351 349 347 346 344 343 341 341 341 341 329 326 329 332 338 338 337 336 335 335 335 334 333 335 336 336 336 342 346 348 344 347 346 343 342 340 338 337 336 332 329 327 326 326 325 324 324 322 321 322 323 323 322 323 321 321 321 318 321 318 318 316 317
354 355 357 358 358 357 357 356 356 356 356 355 355 355 355 354 354 354 354 354 354 354 352 350 348 347 346 344 343 342 341 333 325 325 327 329 333 339 338 337 336 335 335 334 334 335 335 335 335 336 338 339 338 340 344 344 339 339 338 335 334 334 334 331 329 325 323 324 323 323 323 323 323 322 322 320 321 320 320 319 320 320 319 316 315
353 354 356 357 358 358 357 356 356 355 355 356 356 355 354 354 353 353 353 354 354 353 352 351 349 348 346 344 343 343 342 331 325 324 326 327 329 335 339 338 337 336 335 335 335 335 335 335 334 335 336 345 344 337 335 337 342 338 336 336 334 332 329 328 328 331 327 325 324 324 324 324 323 323 324 321 320 320 318 317 318 319 319 318 319
352 354 355 357 358 358 357 357 356 355 356 356 355 355 354 353 353 354 354 354 354 353 352 351 350 348 347 345 344 344 343 329 323 322 324 325 327 331 338 337 337 336 336 336 336 335 335 335 334 334 334 336 337 337 336 334 334 335 333 331 331 335 329 324 323 324 327 329 326 325 327 325 325 324 326 323 322 321 318 319 318 317 317 319 320
351 353 354 357 358 358 357 357 356 356 356 355 355 354 354 353 353 353 354 354 353 353 352 351 350 349 348 347 345 344 344 325 320 321 322 323 324 328 337 337 337 336 336 336 336 336 336 336 335 334 333 332 334 336 335 333 331 331 329 329 329 330 331 331 329 328 328 329 328 328 328 327 327 326 323 326 326 325 324 323 321 319 318 316 317
350 352 353 355 357 358 357 356 356 356 355 355 355 354 354 354 353 354 353 354 354 354 354 353 351 349 349 347 345 343 344 321 319 320 321 322 324 332 337 336 335 335 336 336 336 336 336 335 333 332 331 331 335 334 339 334 331 330 330 330 330 331 333 336 330 331 334 330 329 329 329 329 327 328 328 327 325 325 326 321 317 316 314 313 313
349 351 353 354 356 358 358 357 356 355 355 354 354 354 354 354 354 355 353 353 353 353 353 353 352 350 348 347 345 343 342 322 318 318 320 321 322 333 336 336 334 334 335 335 335 336 335 333 332 332 331 331 332 326 330 339 332 332 331 330 331 331 331 332 329 327 327 325 324 324 323 321 320 318 317 319 326 322 316 314 314 313 311 309 312
349 350 352 353 355 357 358 357 356 355 355 354 354 354 355 355 355 355 354 353 352 353 353 353 352 350 348 346 345 343 342 323 316 316 318 319 324 334 335 335 334 333 333 334 334 334 335 341 337 331 331 331 327 323 325 336 332 331 330 329 329 329 328 330 330 324 319 319 320 320 320 320 319 317 317 315 314 317 317 313 315 314 313 312 310
349 350 351 353 355 357 358 358 357 356 355 354 354 354 355 355 355 355 355 354 353 353 352 352 349 347 346 346 339 342 342 325 314 317 317 316 324 335 335 334 333 332 331 331 332 333 332 339 342 336 334 330 323 322 323 335 334 332 331 330 329 328 328 326 325 323 322 323 323 325 324 322 321 318 322 318 316 318 317 317 317 313 312 312 312
350 351 352 353 355 356 358 357 357 357 356 355 356 356 356 356 355 355 354 354 353 351 350 348 345 343 343 344 343 342 342 331 322 315 315 314 319 335 336 334 332 331 331 331 330 330 330 329 333 328 324 323 320 317 318 323 334 333 332 331 329 328 325 323 323 321 321 323 319 320 320 319 320 320 320 320 324 324 321 318 317 315 314 314 314
351 351 352 353 354 356 357 358 357 358 358 357 357 357 357 356 355 354 352 350 347 345 344 343 342 340 340 342 342 341 341 332 325 314 313 312 316 325 335 334 334 332 330 330 330 330 328 328 328 323 319 318 317 314 314 317 328 333 332 331 331 326 322 323 326 329 319 322 321 320 319 318 318 318 319 317 320 320 319 319 319 317 315 313 311
351 351 352 353 354 356 357 358 359 359 359 358 357 357 357 356 355 354 351 348 345 342 340 339 339 337 337 339 339 338 336 328 328 314 313 311 314 319 333 335 334 332 330 329 329 328 329 329 329 325 318 315 314 311 311 314 320 329 329 318 312 317 322 323 321 320 318 318 317 318 317 317 315 315 316 318 318 324 314 313 316 317 318 316 312
353 353 353 354 355 357 358 358 358 360 359 358 357 355 355 354 353 352 349 347 344 341 339 338 336 334 332 332 333 335 334 330 322 319 312 311 311 314 321 329 325 334 330 329 328 328 328 328 329 324 316 312 310 309 310 311 318 322 306 307 312 317 322 318 320 317 316 316 316 316 315 315 315 313 314 315 315 315 314 313 312 313 314 317 315
357 356 355 356 357 358 359 359 360 359 358 357 356 354 353 353 351 350 348 347 344 341 338 336 334 332 331 330 332 333 334 332 322 318 318 312 311 311 314 319 321 331 332 330 328 328 327 328 326 318 310 305 305 308 309 314 321 304 305 309 314 319 318 318 315 315 317 315 314 313 314 314 314 312 314 317 314 312 312 312 311 311 311 312 312
359 358 358 358 358 360 359 359 359 358 357 356 353 352 351 351 348 347 346 344 343 340 335 334 333 331 330 329 328 326 330 331 329 322 319 315 311 310 312 316 317 320 331 329 329 329 323 318 317 312 305 302 305 307 311 312 306 307 310 313 320 314 315 314 314 314 313 314 314 315 315 317 315 315 314 312 315 314 313 313 312 312 311 310 311
358 358 359 359 359 359 358 357 357 355 355 354 353 352 350 349 346 343 342 339 338 336 333 333 332 330 329 327 326 325 326 327 327 322 320 316 314 311 313 316 322 323 329 330 326 324 320 317 310 307 307 309 314 316 318 316 312 312 312 316 316 314 314 314 314 314 313 314 315 315 315 314 314 316 314 313 311 309 310 310 310 311 309 308 306
355 355 357 357 357 357 356 353 352 352 351 349 348 347 346 343 341 338 338 337 335 334 333 332 332 331 330 327 326 326 325 325 324 322 320 318 319 317 316 320 319 320 324 321 318 316 315 315 314 312 312 314 318 319 318 314 312 311 313 314 314 315 315 314 314 314 315 314 315 315 313 313 313 314 311 310 309 310 309 312 310 308 309 306 304
352 352 352 350 350 350 350 353 349 346 345 345 344 342 341 340 339 337 337 336 334 332 331 331 330 330 328 328 328 327 326 324 324 323 322 321 320 319 320 323 325 326 322 320 319 319 316 314 314 318 318 318 318 317 316 315 315 314 313 313 313 316 317 319 320 317 315 315 313 312 313 311 310 309 310 309 308 309 310 311 309 305 307 305 301
345 346 344 344 339 337 336 332 327 321 316 312 309 316 335 339 332 322 320 329 338 335 333 331 331 331 331 330 329 328 328 327 326 318 323 316 319 319 320 322 324 325 322 315 320 318 318 318 318 318 318 318 317 316 317 317 316 315 316 314 313 313 313 314 315 316 316 314 313 312 311 310 309 309 310 307 308 308 306 304 306 304 305 301 301
339 339 338 337 336 334 332 330 329 326 324 321 317 312 304 300 313 329 323 312 310 318 322 332 333 332 332 332 333 331 330 331 318 310 307 306 306 309 310 310 312 316 312 314 320 319 319 318 318 318 318 317 316 316 317 317 317 317 316 316 314 313 313 314 314 314 313 313 312 312 312 311 307 306 306 306 307 306 304 307 304 304 302 301 301
336 336 335 334 332 331 331 329 328 327 326 325 322 318 316 311 297 296 303 305 301 297 299 308 317 321 331 329 321 317 322 314 308 305 303 302 302 302 302 302 303 304 308 319 321 319 318 319 318 318 318 318 318 317 317 316 316 316 316 315 315 315 314 313 313 312 313 314 313 313 312 309 305 304 306 306 307 306 304 304 304 303 301 301 300
334 334 334 334 333 331 331 330 329 328 328 328 326 324 321 316 313 301 296 298 297 295 294 297 307 311 315 320 319 316 308 304 303 301 300 300 300 300 299 300 302 304 306 311 321 319 319 319 318 317 318 318 318 318 317 317 317 317 315 315 315 315 314 314 313 313 312 310 309 308 307 305 304 305 305 305 305 303 300 300 300 300 302 301 301
334 334 334 334 334 333 332 330 329 328 327 326 325 324 322 321 316 314 310 299 296 295 295 294 299 306 304 304 307 307 303 300 299 299 300 300 299 299 300 301 303 303 307 319 321 320 320 320 319 319 319 318 318 317 317 318 318 317 315 315 315 314 315 310 306 308 307 306 306 305 305 305 305 304 305 304 302 297 299 300 300 300 300 298 300
336 336 335 335 333 332 331 330 328 327 327 327 326 325 324 322 320 318 318 318 317 308 301 297 295 298 299 299 299 299 299 299 299 300 300 300 300 301 301 305 301 303 312 322 322 320 320 320 320 320 319 319 317 316 312 311 312 311 311 310 308 308 308 307 306 306 307 307 305 305 303 302 303 300 298 298 299 299 299 301 299 298 297 297 298
340 342 343 340 334 333 332 331 329 328 327 327 326 325 323 322 322 322 322 321 319 316 313 309 300 296 301 299 297 298 299 299 300 300 301 301 300 300 304 312 314 316 317 318 321 321 320 320 318 316 314 313 312 313 311 310 310 310 309 309 308 307 304 304 304 305 304 303 302 302 302 302 301 302 301 299 299 298 299 299 298 298 297 298 299
340 339 338 337 335 334 332 331 330 329 328 327 326 324 324 324 323 323 320 320 315 311 309 306 305 303 299 297 297 298 299 300 300 299 299 299 300 306 318 318 318 318 318 315 317 317 317 316 314 312 312 312 312 310 310 309 309 308 308 308 307 306 305 305 305 304 305 303 303 303 302 300 300 300 298 298 299 299 297 298 298 299 300 298 299
338 337 336 335 335 333 332 331 330 329 328 325 325 325 325 325 324 321 319 317 314 312 308 307 309 309 309 308 301 296 295 296 297 297 298 299 302 316 319 319 318 318 317 316 314 315 314 313 312 312 311 312 311 310 309 308 309 309 309 307 305 304 304 304 305 307 303 302 300 300 299 298 297 298 298 297 298 297 298 300 298 299 300 301 302
338 337 336 335 334 333 331 330 329 327 327 327 326 326 326 324 322 320 318 316 314 312 310 312 313 312 310 308 312 308 304 300 300 301 301 304 310 316 317 318 319 317 317 313 313 313 311 308 309 311 310 311 310 308 307 307 307 307 307 306 306 305 310 307 309 303 302 301 301 300 301 301 299 299 300 297 296 296 297 299 297 296 297 300 299
336 328 327 329 330 333 331 329 329 328 328 327 327 326 325 323 321 319 317 316 315 314 314 315 314 313 310 310 309 310 312 313 314 313 313 312 310 311 313 314 314 312 314 312 314 311 309 309 310 311 310 308 308 305 305 305 304 304 304 304 304 303 302 299 299 300 302 300 301 300 300 299 298 298 297 296 297 297 296 296 297 297 296 297 297
335 334 330 327 330 329 330 330 329 328 328 327 327 326 325 323 320 318 317 316 315 316 316 316 314 313 312 312 311 312 315 315 314 314 313 312 311 309 310 312 312 313 313 311 311 311 311 310 310 309 308 307 306 305 305 305 304 303 303 302 301 301 300 299 299 300 299 300 299 298 299 297 298 299 296 298 298 297 297 298 298 298 297 297 298
335 335 335 328 328 330 332 330 329 328 328 328 328 327 324 323 321 319 317 316 316 317 317 317 316 314 312 309 305 308 316 315 314 314 313 312 311 309 308 310 312 311 312 312 311 311 310 309 308 307 307 306 305 305 304 303 303 303 302 303 302 302 299 299 299 300 299 300 298 298 297 297 298 296 297 298 303 299 298 299 298 297 298 298 299
332 331 331 329 330 332 331 330 329 331 330 329 327 325 324 323 321 319 319 318 317 317 317 317 316 314 307 302 300 301 312 315 314 313 312 310 311 309 310 310 311 311 311 311 311 309 308 307 306 305 306 306 305 305 304 302 301 301 300 299 300 299 299 298 299 298 298 297 298 297 297 300 301 300 300 303 297 296 297 297 297 297 298 298 298
330 329 329 332 331 330 330 330 330 328 328 327 326 329 326 323 321 321 320 319 318 318 317 315 314 313 310 303 303 300 310 312 316 312 311 310 310 311 311 311 310 310 310 308 308 308 308 307 306 305 305 305 305 305 303 301 301 299 299 299 298 297 297 298 298 298 298 298 298 299 298 298 299 297 298 300 297 297 296 297 298 298 298 297 298
329 330 330 330 329 329 329 329 328 328 328 329 328 326 325 323 322 321 320 319 318 318 317 314 313 313 312 307 304 303 309 311 311 310 311 311 311 311 310 310 310 309 308 307 307 308 308 307 306 304 305 304 304 303 302 301 300 299 298 298 299 298 296 297 297 297 296 296 297 297 297 298 299 296 298 300 296 296 297 298 299 298 298 298 298
328 328 326 325 325 327 327 327 327 327 328 329 327 326 326 323 322 321 320 319 320 318 316 315 313 313 311 310 309 307 307 310 312 312 311 311 311 311 310 309 310 309 307 308 307 307 307 307 306 305 305 304 302 302 301 300 300 299 297 298 298 297 295 295 295 296 296 296 296 296 296 296 293 293 295 295 299 297 298 297 298 302 299 298 297
328 327 327 326 327 327 326 327 327 327 327 326 326 325 324 323 323 322 321 321 320 318 316 315 313 312 312 311 310 309 307 309 312 311 312 311 311 311 310 311 311 309 308 308 307 307 307 307 306 306 305 303 302 301 300 300 298 298 297 296 296 296 296 296 296 296 295 294 292 292 295 295 294 295 300 298 297 297 297 298 298 299 298 298 297
328 327 329 329 328 326 324 325 325 325 325 325 325 325 324 324 323 323 322 321 320 318 315 314 312 312 312 312 311 309 309 312 313 312 312 312 311 311 311 311 311 309 308 307 307 307 307 307 306 306 305 303 302 301 299 298 297 297 297 295 296 296 295 295 296 295 293 294 295 291 293 293 295 295 296 297 297 297 298 298 298 299 299 299 297
326 325 324 324 324 323 323 323 324 326 322 322 323 324 323 322 321 321 322 321 319 317 315 313 312 311 312 312 312 310 311 313 314 314 313 313 312 312 312 312 311 309 308 307 306 306 307 306 306 306 305 304 303 301 299 297 296 296 295 296 296 294 296 295 293 293 292 292 291 292 292 292 293 294 296 296 295 296 297 297 298 299 299 299 299
323 323 323 323 322 320 321 322 323 322 321 321 321 322 321 322 321 320 320 319 318 316 315 313 312 311 312 312 312 311 312 313 314 314 314 314 314 312 313 312 311 309 308 306 306 306 306 306 307 306 305 304 303 302 300 299 297 296 296 294 295 296 292 293 291 290 291 294 293 292 291 291 292 293 295 295 295 296 296 297 297 299 299 299 298
324 324 323 323 322 321 322 320 320 320 321 321 320 320 320 320 320 319 319 319 318 316 315 314 313 312 312 312 312 312 312 313 313 314 314 315 313 313 312 311 310 309 307 306 306 306 305 305 306 306 305 304 303 302 300 299 298 297 296 296 295 291 290 290 290 292 292 290 289 289 290 291 291 291 292 293 293 294 295 297 299 300 299 298 298
325 323 322 322 322 321 321 320 319 319 319 319 319 318 318 319 319 319 319 319 318 317 317 316 315 314 313 313 313 312 312 312 313 314 314 314 313 312 312 311 311 309 307 306 306 306 305 305 305 305 305 305 304 302 301 299 298 297 295 295 292 291 291 291 291 290 292 291 289 291 291 293 292 291 293 293 293 293 298 300 300 299 298 298 298
Wind_Speed
18 16 15 15 15 15 15 14 14 12 12 13 13 13 12 12 13 12 10 12 12 12 13 13 13 13 13 12 12 11 10 10 9 9 9 10 9 10 8 9 10 8 7 8 6 6 7 6 5 5 4 5 5 5 4 4 4 5 4 5 5 4 5 5 5 6 4 3 3 4 3 2 3 2 4 4 4 3 3 4 4 4 4 5 5
17 16 15 14 16 15 15 14 13 13 13 13 14 13 13 13 12 11 13 13 12 13 14 12 12 13 13 12 12 12 11 11 10 9 10 10 10 8 9 10 9 9 8 9 8 6 6 7 6 5 4 6 5 6 6 5 4 4 4 5 5 5 5 5 6 5 7 3 2 2 3 2 4 2 4 5 6 4 5 5 3 3 4 5 5
17 16 15 15 16 15 15 14 14 14 15 13 15 14 14 13 12 14 13 12 12 13 13 13 13 13 13 12 12 11 12 11 10 10 11 11 11 10 9 10 10 10 10 10 9 6 6 7 7 5 4 4 5 6 5 5 5 5 5 4 5 5 5 6 5 5 6 6 3 3 3 2 4 5 4 4 4 3 4 4 4 5 4 4 5
17 16 16 16 17 16 15 15 16 16 16 14 16 16 14 13 13 13 13 12 13 12 12 13 13 13 13 13 12 12 11 11 11 11 12 12 11 11 10 10 10 10 10 9 8 8 8 7 7 6 5 6 6 6 5 5 5 5 5 5 5 6 5 5 6 6 5 5 3 5 3 3 4 4 4 3 3 4 3 4 4 4 5 4 4
17 17 17 18 17 16 17 16 16 17 17 15 17 16 15 14 13 14 13 13 13 12 12 12 13 13 14 14 13 12 12 12 12 11 11 11 11 11 11 10 10 10 8 7 7 8 8 8 6 5 5 6 5 6 5 5 5 5 6 5 6 6 4 5 6 5 5 6 4 3 3 3 3 3 3 4 5 4 3 4 5 5 4 4 4
17 17 17 17 17 18 17 17 18 18 18 17 17 17 15 14 14 13 14 15 13 13 14 12 13 14 13 13 13 13 12 12 13 13 13 11 10 10 10 9 9 8 7 6 6 7 7 7 5 6 6 7 7 6 5 6 5 5 6 6 5 4 5 5 4 5 5 6 5 4 2 4 3 3 4 4 5 5 4 5 4 4 4 6 6
16 17 17 18 17 18 18 18 17 17 17 17 15 15 15 15 15 15 14 15 14 14 14 14 12 13 13 12 13 13 12 12 12 12 11 11 11 10 10 10 8 5 3 5 5 6 6 6 6 7 7 8 7 7 6 5 6 7 7 7 6 5 6 6 5 5 6 6 4 4 4 4 4 5 5 3 4 4 4 5 5 4 3 4 6
17 18 18 17 18 19 18 17 17 17 16 16 15 15 15 15 15 14 13 14 15 15 15 15 13 11 12 12 12 12 12 12 12 11 11 11 11 10 10 9 6 2 4 5 5 6 7 7 7 8 8 8 8 7 6 7 6 6 7 6 6 6 6 5 5 5 5 5 6 6 4 4 2 3 2 0 2 3 4 5 7 5 5 3 5
17 17 17 18 18 17 16 15 15 15 16 16 16 16 16 15 14 13 13 14 12 14 13 13 12 12 11 12 12 11 12 13 11 12 11 11 10 11 11 9 7 7 7 7 7 7 7 8 9 9 9 10 11 9 9 8 7 7 6 6 6 7 6 5 6 6 5 6 6 4 3 4 4 3 4 3 5 7 3 3 5 4 4 5 5
18 18 19 19 17 16 16 15 15 16 16 17 17 16 16 15 14 14 14 14 13 12 12 12 13 14 13 13 12 12 12 11 13 17 15 12 12 11 10 9 10 11 11 10 8 9 10 9 9 13 14 14 13 13 12 13 12 9 7 7 7 6 6 6 6 6 6 6 7 6 5 6 6 4 4 5 4 1 1 2 3 3 2 4 6
17 18 19 18 16 16 15 16 16 17 17 16 16 16 16 14 13 13 13 13 14 13 13 14 14 14 14 14 14 13 12 12 16 16 18 19 14 11 11 9 10 11 11 10 10 10 9 9 9 11 12 12 12 15 14 14 14 14 13 12 10 9 7 7 6 6 6 7 6 4 6 7 6 4 5 5 3 4 4 3 4 2 3 4 7
18 18 18 16 15 17 16 16 16 17 16 17 17 16 15 14 14 14 13 14 13 13 14 15 15 13 13 14 15 14 13 14 17 18 19 20 18 12 9 9 10 10 10 11 10 10 9 9 8 7 8 9 7 7 10 12 13 14 14 13 13 13 12 9 7 5 5 6 6 7 5 6 6 4 4 2 5 4 4 3 3 4 5 5 4
19 18 17 16 17 17 16 16 17 16 17 17 15 14 14 14 14 14 15 14 13 14 15 14 14 14 14 15 16 15 13 15 18 20 20 22 22 16 10 10 10 11 11 11 11 11 9 8 8 7 6 11 9 6 6 6 10 14 15 14 13 13 12 11 9 7 6 6 6 7 7 5 5 6 4 3 2 4 2 3 3 4 5 6 7
18 18 17 17 17 17 17 17 17 17 17 15 14 14 15 16 15 14 13 13 14 14 14 15 14 14 15 15 15 14 13 15 20 21 22 23 22 18 11 11 10 10 11 11 11 11 11 10 9 8 6 6 6 6 5 6 7 5 5 5 5 6 8 8 8 8 6 6 5 7 6 5 7 6 5 3 4 4 4 5 4 4 5 7 6
17 17 17 17 17 17 17 17 18 17 16 15 15 15 16 15 15 14 14 14 15 15 15 15 15 15 15 15 14 13 12 17 20 22 22 24 23 19 11 10 9 10 10 10 11 10 10 9 9 9 8 6 6 6 6 6 5 5 5 5 6 5 5 5 5 5 5 5 6 7 7 5 7 6 3 4 5 5 5 6 5 4 3 3 5
18 16 17 17 18 18 17 17 17 16 16 16 16 16 16 16 16 14 13 12 12 12 12 13 14 15 15 14 13 13 11 17 20 21 23 24 23 13 12 11 9 9 9 9 9 8 8 8 8 8 8 8 9 12 10 7 6 6 6 5 5 4 5 6 8 8 6 6 7 7 7 6 4 4 5 5 5 4 3 1 2 1 2 5 7
17 17 18 18 18 18 17 17 17 16 16 17 17 17 17 16 15 12 13 13 13 14 14 15 14 14 13 13 13 12 9 14 20 22 23 24 16 11 11 11 10 10 9 8 8 8 8 9 9 9 8 8 10 12 12 10 6 7 6 6 5 4 5 3 5 6 8 10 10 10 9 8 8 8 9 9 7 2 2 1 5 3 3 5 5
18 17 18 18 17 17 17 17 17 17 17 18 19 17 16 14 14 13 15 15 15 15 14 13 11 11 13 13 13 11 9 14 22 22 24 23 19 15 13 11 11 9 8 6 7 8 10 15 12 10 9 9 10 12 11 9 6 7 6 5 5 5 4 2 2 1 2 1 0 1 3 5 6 6 6 7 6 3 4 5 5 1 4 4 5
17 18 18 18 17 17 17 17 17 17 18 18 17 17 16 16 14 13 14 13 13 11 10 11 9 9 10 11 13 14 11 13 22 23 24 22 19 12 10 9 10 9 7 7 7 8 9 12 17 13 9 9 12 12 13 11 7 7 7 6 6 6 5 5 5 3 2 1 0 0 0 1 2 3 4 7 5 5 4 6 5 2 5 5 4
19 19 18 16 16 17 17 18 18 18 19 17 16 16 14 13 14 13 12 11 10 9 9 9 10 9 9 10 11 13 12 10 16 23 23 21 21 13 10 11 11 10 8 8 8 8 9 8 10 13 13 13 13 13 13 14 9 7 6 7 7 8 4 4 3 3 2 1 1 0 1 2 3 3 3 3 3 2 4 5 4 4 5 4 4
16 15 14 14 15 17 16 18 20 18 17 16 15 13 12 13 13 12 12 9 8 8 9 9 9 9 9 11 12 12 10 10 13 20 19 20 21 17 10 12 11 10 8 8 9 10 9 8 7 10 14 14 15 14 14 15 13 8 8 8 7 4 7 4 3 4 2 0 0 1 2 3 3 3 3 3 2 1 2 3 4 6 5 5 5
12 12 13 15 16 17 17 16 17 16 15 14 14 14 13 12 12 13 10 10 11 10 9 9 9 8 8 8 7 7 7 13 11 15 18 19 20 21 13 12 12 9 9 9 9 9 9 9 8 10 13 13 13 13 14 14 13 5 5 5 10 11 3 3 3 2 0 0 1 2 2 3 3 2 2 1 1 0 1 1 3 5 5 6 6
11 13 13 14 15 16 16 17 15 12 13 15 16 14 11 12 11 11 11 11 12 11 10 9 8 6 4 3 3 5 6 8 13 13 16 19 20 20 20 14 13 9 10 11 11 8 6 6 8 11 12 12 12 12 14 10 6 4 7 10 10 10 5 4 2 1 1 1 2 4 3 3 3 4 3 2 3 3 3 3 4 4 4 4 4
6 9 11 13 13 13 14 15 14 13 15 14 14 14 12 12 11 10 11 12 11 10 7 6 6 6 6 6 5 5 5 5 9 16 15 20 20 21 20 13 13 12 10 8 6 6 7 7 7 10 10 9 11 9 10 12 11 7 11 9 9 6 3 2 1 2 2 3 3 4 5 4 3 4 3 3 5 4 4 3 3 3 3 4 4
8 8 11 12 13 12 12 13 14 14 14 15 14 13 12 12 10 8 9 9 8 8 6 7 7 6 6 6 5 4 4 5 5 11 17 17 17 16 15 11 14 15 9 4 5 5 5 8 9 7 6 6 10 13 12 9 11 11 13 9 7 3 3 2 1 1 3 5 6 5 5 5 4 4 4 3 2 1 2 3 3 3 3 3 4
10 11 10 10 12 12 13 12 12 13 14 12 13 13 14 12 10 8 8 7 7 8 8 7 7 6 6 6 6 5 5 5 5 3 3 5 6 10 13 7 4 5 4 3 5 6 8 6 10 12 10 9 7 6 7 7 9 7 7 5 3 4 3 3 2 3 6 6 5 6 6 3 2 5 3 2 1 4 2 2 4 5 5 5 6
10 10 9 7 8 10 13 11 11 12 12 9 8 9 9 9 9 9 8 8 8 8 8 8 7 7 7 6 6 6 6 5 5 4 5 5 6 7 9 5 4 8 5 4 6 6 8 8 8 9 9 9 7 7 8 6 6 3 3 5 4 3 4 5 5 6 6 5 5 5 4 3 3 1 2 2 3 5 2 2 4 6 5 4 2
11 13 15 11 5 4 8 16 15 10 9 11 11 10 9 9 10 10 10 10 10 9 8 8 8 8 8 7 6 6 6 6 6 6 6 7 6 7 8 7 6 5 6 6 7 7 8 11 11 8 6 5 4 3 4 4 5 5 5 4 4 3 3 4 5 5 5 4 2 1 2 1 2 5 2 2 3 4 3 1 2 5 5 3 3
6 6 7 8 12 7 7 7 9 12 12 12 10 7 6 10 11 7 3 4 10 11 9 9 9 8 9 9 9 8 7 8 8 8 10 11 11 9 8 9 8 5 8 13 10 9 9 7 7 7 7 8 6 4 3 4 5 5 3 4 4 4 4 4 6 6 4 3 4 4 4 3 5 3 2 2 3 5 1 2 4 3 4 1 3
12 11 11 12 13 14 10 5 6 11 13 12 12 10 16 17 10 8 6 5 7 6 9 8 9 8 8 8 9 11 10 9 10 14 14 15 15 16 14 12 10 10 13 16 12 9 8 9 7 8 6 5 6 6 6 6 5 5 5 4 4 5 5 5 5 5 3 4 4 4 6 5 6 4 3 4 4 4 3 3 3 1 1 3 5
11 12 13 12 11 11 14 11 3 6 11 13 14 15 10 12 19 18 11 7 8 11 10 8 12 12 10 8 4 1 3 9 14 14 13 14 13 11 12 14 15 17 17 13 7 8 8 7 7 6 8 7 6 7 6 5 5 4 5 4 4 4 4 5 6 4 4 5 5 6 6 6 6 4 3 3 3 5 4 2 1 2 3 3 5
12 17 14 11 12 9 7 10 10 9 9 11 12 11 12 12 11 14 14 11 13 12 11 8 5 12 14 11 8 1 3 10 13 13 14 14 14 15 16 17 18 17 16 15 9 8 8 8 6 6 6 6 6 5 4 4 4 5 4 4 5 5 5 6 5 6 6 4 5 4 4 4 3 2 2 3 3 3 3 4 4 3 4 3 3
12 12 12 12 10 8 7 9 10 9 11 11 10 11 11 10 10 7 9 13 15 15 15 13 8 3 9 13 14 13 12 12 15 16 17 16 17 17 18 19 19 17 16 10 8 8 6 6 6 5 6 6 4 4 4 5 6 5 5 5 6 6 6 3 3 3 3 3 3 2 1 2 2 1 1 2 1 3 2 3 3 2 1 3 4
11 11 10 10 10 8 8 8 9 9 9 10 10 9 9 9 9 9 9 6 7 10 14 15 11 8 7 8 13 14 15 16 16 17 17 18 19 19 18 14 14 14 12 9 7 7 6 6 5 5 5 4 4 3 3 2 2 3 3 3 3 4 5 4 5 5 4 5 5 4 3 3 2 3 5 3 2 2 2 2 1 1 3 3 4
7 11 18 12 8 8 8 8 9 9 9 9 10 9 9 7 8 8 9 8 7 7 5 6 9 8 4 5 10 15 15 16 17 18 18 17 17 16 16 12 8 2 1 3 5 6 7 7 6 6 5 5 6 7 6 5 5 5 6 6 5 6 6 6 6 5 6 4 4 3 3 3 3 3 2 2 2 1 1 1 1 1 2 4 4
7 6 7 9 8 7 7 7 8 7 7 7 7 8 8 8 6 5 4 6 7 7 6 5 4 6 11 10 8 9 11 12 13 13 14 15 17 17 11 8 8 7 5 4 5 5 5 6 6 6 6 7 6 7 7 6 6 6 6 6 6 6 6 6 4 3 3 4 4 3 2 1 2 1 2 2 1 1 1 1 1 2 2 4 4
7 6 6 6 7 7 7 7 7 8 8 8 8 8 7 7 6 6 5 6 6 6 7 7 7 7 7 7 9 11 12 12 11 12 12 14 13 7 7 8 8 7 6 5 5 6 6 6 6 6 6 7 7 6 6 6 5 5 5 6 6 6 5 5 5 3 3 3 3 3 3 4 3 3 2 1 1 1 0 1 2 3 3 5 5
6 6 6 7 7 8 7 6 7 9 8 7 8 9 9 8 7 7 6 5 5 7 7 6 7 10 9 6 5 4 9 11 14 12 8 6 3 6 6 6 7 8 7 5 5 7 7 6 6 6 6 7 7 6 6 6 6 6 6 6 5 5 5 4 3 3 3 4 5 3 4 4 1 2 2 3 1 0 1 1 3 5 4 6 4
6 10 12 10 7 6 6 7 7 7 6 7 6 7 8 8 8 7 6 6 7 6 6 7 6 6 7 6 5 7 10 7 7 7 7 5 5 5 6 6 6 6 5 5 5 5 6 6 5 6 6 7 7 6 6 6 6 6 6 6 5 4 4 4 4 5 5 3 2 3 2 2 2 3 3 3 1 0 1 3 3 4 5 5 6
7 6 8 10 7 7 6 6 6 6 6 6 6 6 7 7 8 8 8 8 8 7 7 7 6 5 5 7 7 7 7 8 7 7 7 6 5 4 5 6 6 6 6 6 6 5 6 5 6 6 6 6 6 6 6 7 6 6 6 6 6 5 5 4 3 1 0 1 1 1 4 4 3 3 1 1 1 1 2 3 3 4 4 5 5
4 7 6 7 8 7 6 6 5 5 6 5 5 7 6 7 7 7 7 7 7 6 6 6 6 7 7 7 9 6 7 8 8 7 7 6 5 4 5 6 6 5 5 6 6 6 6 6 6 6 7 6 6 7 6 6 6 6 6 5 5 4 3 2 3 3 3 3 4 5 3 2 1 2 2 1 1 3 2 1 3 3 4 4 5
4 3 6 6 7 7 7 7 5 5 5 5 5 5 6 6 6 6 6 7 6 6 6 5 5 6 7 11 10 4 5 5 6 6 5 5 5 4 4 5 5 6 6 6 6 7 6 7 7 7 7 7 6 6 6 6 6 6 6 6 6 4 3 3 4 5 5 4 4 3 2 1 1 1 1 2 3 2 3 3 4 4 5 5 5
6 2 1 3 5 7 7 6 6 6 6 6 5 5 5 6 5 5 5 5 6 6 6 6 6 5 6 8 8 3 4 5 5 6 6 6 5 5 5 6 6 5 6 6 7 7 8 8 7 7 7 7 7 7 7 7 7 7 6 6 5 6 6 5 4 5 4 5 4 2 2 2 3 3 2 2 2 2 2 3 4 5 4 5 5
6 5 4 4 3 4 3 6 6 6 6 7 6 5 6 5 5 5 6 6 6 6 6 6 6 6 6 7 5 3 4 6 5 6 6 6 6 6 6 5 4 5 6 6 6 7 8 7 7 7 5 6 6 5 6 7 7 7 7 6 5 4 6 5 5 5 5 5 3 3 3 2 1 1 1 1 2 3 3 4 4 5 5 5 5
5 6 6 5 4 0 5 5 6 6 5 6 7 7 6 6 6 6 6 7 6 6 6 6 6 7 7 7 6 5 4 6 6 6 6 6 6 6 6 5 5 6 6 6 6 7 7 7 7 6 6 6 5 6 6 6 5 6 6 7 6 6 7 6 6 5 5 5 3 3 1 1 0 0 1 1 1 1 3 3 4 5 5 5 5
3 3 6 5 6 3 3 5 5 5 5 5 6 6 6 6 6 6 6 7 6 7 6 6 6 7 7 8 7 5 5 5 6 6 6 6 6 6 6 5 6 6 7 7 7 7 7 7 7 7 7 7 6 6 6 6 5 5 5 6 6 7 7 6 5 5 4 5 4 2 1 1 1 0 2 1 1 1 2 3 3 4 4 5 5
5 6 3 6 7 3 3 4 5 4 4 6 6 6 6 5 5 6 5 5 7 7 7 6 6 6 7 7 7 6 5 5 6 6 6 7 6 6 6 6 6 6 6 7 7 8 8 8 7 8 8 7 7 7 7 7 6 6 5 6 6 6 6 5 6 5 5 4 4 3 1 1 0 0 1 1 2 2 2 3 3 5 5 5 5
4 5 6 5 3 4 5 6 7 7 5 3 1 6 7 6 6 7 6 6 7 7 7 6 5 6 6 7 6 6 5 5 5 6 6 6 6 6 7 7 7 7 7 7 7 7 7 8 8 8 8 8 7 7 7 6 6 6 6 6 6 7 7 7 4 4 4 4 3 3 2 1 1 0 1 1 1 2 3 5 5 5 5 4 4
5 5 6 6 5 5 2 5 5 4 4 5 2 3 5 7 7 6 6 7 7 7 7 7 6 5 6 7 7 6 4 4 6 6 6 6 6 6 7 6 7 7 8 8 8 7 7 8 8 8 8 8 8 8 7 7 7 6 6 6 7 11 12 9 6 5 6 5 4 3 3 2 1 1 0 1 1 1 3 3 3 4 5 4 4
5 6 6 5 6 3 4 2 2 4 4 5 4 3 5 6 6 6 6 7 7 7 6 6 7 7 7 7 7 6 5 5 6 6 6 6 6 6 6 7 8 8 8 8 8 7 7 7 7 7 7 8 8 8 7 7 7 7 7 8 11 13 12 11 9 8 6 4 4 3 3 2 1 0 0 1 1 2 3 4 4 4 4 5 5
4 4 4 5 6 5 6 6 2 2 2 4 6 6 6 6 6 6 6 7 7 7 7 7 7 6 6 7 7 7 6 5 5 5 6 6 5 5 6 7 8 8 7 7 7 7 7 7 7 7 8 8 8 8 8 8 7 8 10 13 15 14 13 10 7 7 8 5 4 4 3 2 1 0 0 1 1 2 3 4 5 5 5 5 4
Wind_Direction
189 192 189 192 190 192 194 194 195 195 195 194 195 197 197 195 193 190 181 189 183 186 187 188 187 187 187 189 189 189 188 188 187 181 185 193 197 197 192 194 197 200 194 203 204 192 194 199 201 204 190 191 197 196 193 183 168 168 163 160 178 176 158 169 195 250 287 228 226 252 280 311 305 258 286 292 299 278 236 228 237 242 254 254 255
191 189 189 189 191 191 193 192 194 194 196 196 198 198 198 197 192 186 192 191 186 187 189 188 189 190 190 192 192 191 190 189 188 185 189 194 199 196 195 194 197 197 195 203 204 198 190 197 204 201 187 190 182 182 187 173 171 165 173 176 195 194 191 168 205 208 252 311 296 285 286 245 255 303 276 287 289 294 301 304 301 283 271 277 287
188 186 187 189 192 191 189 191 192 195 196 198 201 199 199 197 190 192 193 192 192 189 188 188 189 191 193 194 193 194 192 191 191 190 195 198 199 200 199 197 196 195 198 204 200 193 193 200 203 196 181 192 188 187 180 184 178 177 195 195 202 212 196 194 177 212 233 259 249 263 247 242 216 262 274 259 260 274 289 294 289 300 298 289 287
186 186 187 190 189 189 190 190 191 194 198 200 202 202 199 196 193 194 194 192 193 194 189 189 190 192 194 194 195 195 194 195 194 195 198 200 200 202 204 204 204 203 203 201 194 194 201 199 207 198 185 192 195 188 189 185 181 191 200 210 207 217 210 195 204 203 215 230 269 213 232 209 261 257 262 269 262 271 239 270 287 279 275 280 276
186 187 187 188 188 190 191 190 192 195 199 201 203 202 200 196 194 196 192 195 195 190 192 190 192 194 196 195 194 196 196 196 196 197 201 203 202 202 206 207 209 209 208 204 193 195 201 204 201 194 189 196 198 193 189 193 197 191 205 210 207 216 213 200 209 207 211 228 255 257 243 241 243 256 245 259 279 274 272 253 257 260 275 271 274
187 185 187 188 189 191 192 191 194 196 198 201 202 202 201 198 196 197 195 196 193 194 193 193 195 197 198 196 195 197 197 199 199 198 199 201 203 206 208 209 211 209 204 201 198 197 200 202 198 194 195 200 202 200 193 200 198 206 213 215 208 202 207 214 208 207 212 233 230 260 283 233 270 252 245 224 238 267 288 279 284 273 273 294 284
186 187 189 190 190 192 192 194 194 196 198 200 200 201 203 200 197 198 197 196 193 195 198 196 198 197 198 194 196 196 199 201 202 200 198 201 202 204 208 211 210 204 207 212 205 198 198 195 196 197 201 204 200 199 199 202 202 216 217 214 209 199 210 216 211 213 216 231 241 230 244 252 220 254 265 236 239 225 245 277 278 270 257 246 277
187 188 188 191 193 193 194 193 194 196 197 198 200 202 203 203 201 198 195 197 197 197 196 198 198 197 196 197 197 196 199 203 203 200 197 200 200 204 207 205 194 144 234 230 213 207 200 196 200 201 200 201 201 203 193 204 202 219 220 208 203 201 209 213 210 212 220 227 233 245 226 233 252 248 291 134 247 285 227 225 254 267 257 246 234
189 189 190 194 196 193 192 194 195 195 195 197 200 202 204 204 202 197 196 199 200 199 197 194 194 198 198 197 196 197 202 205 202 196 194 197 201 205 203 199 157 187 212 218 217 212 205 203 206 207 203 200 205 200 200 195 193 210 221 202 202 200 207 202 203 204 219 225 249 242 254 256 249 253 271 246 223 235 228 179 234 248 271 292 269
189 190 194 198 194 190 192 192 194 194 195 198 200 201 203 203 201 198 197 199 200 197 194 193 196 197 196 198 198 200 206 208 202 191 188 193 200 204 201 192 178 195 205 205 205 209 210 207 210 208 203 203 204 207 208 206 206 203 203 195 197 194 197 196 199 205 210 224 238 237 244 251 248 228 230 235 230 230 246 214 236 277 322 286 288
192 194 199 198 190 189 190 193 192 195 198 198 199 201 203 201 200 199 198 198 199 197 194 194 198 199 198 197 200 205 209 209 193 185 187 195 199 203 201 189 190 201 202 202 208 211 211 209 211 213 207 208 214 216 218 219 220 219 214 202 195 188 190 199 210 201 207 224 235 225 232 253 254 217 221 241 234 222 235 214 238 275 288 303 300
194 198 200 192 189 190 194 191 192 197 196 199 201 201 200 200 200 199 199 198 199 197 197 199 200 198 199 201 204 208 211 202 184 185 186 195 201 201 194 190 195 198 199 204 208 212 210 207 209 209 211 210 209 223 235 238 232 228 224 212 208 206 196 191 202 204 207 226 238 234 229 241 255 224 238 224 245 244 234 212 222 243 268 270 257
197 199 197 190 191 192 192 191 195 196 198 199 200 197 198 199 200 199 201 200 197 199 201 199 200 200 200 203 208 210 212 193 183 183 186 196 204 200 196 193 191 199 200 203 208 210 207 203 206 209 211 209 205 209 214 237 241 233 226 219 215 209 207 206 199 198 185 205 226 247 222 230 243 249 212 211 183 215 214 240 249 242 239 249 255
197 198 194 193 193 193 191 192 195 198 197 196 196 196 197 201 200 200 201 199 200 201 201 201 201 201 203 205 209 208 209 187 183 182 186 197 204 201 201 193 197 199 202 205 208 207 204 200 200 206 207 208 210 212 217 225 231 226 210 199 197 208 208 214 221 228 214 212 215 239 241 189 231 236 233 177 165 205 204 248 247 249 238 238 249
197 196 195 196 193 193 192 193 196 196 194 194 194 197 199 199 199 200 200 200 199 201 200 202 203 204 205 206 207 207 209 183 181 181 187 198 204 201 199 197 199 202 204 206 207 207 204 201 197 201 201 203 206 205 207 213 206 201 194 198 202 201 200 208 215 219 218 217 222 233 247 225 228 244 233 196 203 206 198 226 237 225 247 296 315
198 195 196 195 195 194 192 194 195 192 191 192 194 197 197 197 200 198 199 202 203 202 204 204 205 206 205 203 205 209 204 177 179 181 188 199 200 197 203 203 201 203 208 208 207 202 198 195 190 195 200 205 213 209 207 198 194 196 199 207 211 205 208 210 201 204 206 207 215 226 235 243 228 226 215 207 219 230 240 353 19 311 317 299 281
199 196 198 196 195 194 193 193 192 191 191 192 196 197 196 197 198 194 199 201 200 201 203 205 207 204 202 201 203 207 199 178 178 183 190 199 189 197 199 208 207 206 209 206 201 199 196 191 186 194 198 203 214 207 210 186 189 194 197 204 209 207 229 229 232 230 236 232 227 228 239 248 248 246 243 232 221 176 108 332 277 233 232 268 274
201 198 199 197 195 193 192 191 191 191 190 195 196 196 194 193 195 191 196 199 201 202 203 206 204 201 199 200 200 198 196 179 182 185 191 192 186 193 200 202 208 205 205 198 195 201 202 197 194 198 201 206 208 203 201 186 190 192 192 198 209 221 235 211 145 23 343 303 171 250 248 251 252 254 247 241 231 136 176 234 252 243 277 258 269
202 200 200 197 193 192 191 191 191 191 193 197 195 192 191 191 191 189 199 199 202 200 199 201 197 194 197 197 190 193 196 183 186 185 191 189 189 193 189 199 208 210 194 196 198 204 208 204 200 199 198 203 204 204 196 192 194 190 195 195 211 220 211 176 172 154 134 108 39 47 302 245 241 246 262 265 257 200 202 229 259 242 251 271 273
205 204 201 194 192 190 190 190 191 191 194 193 192 193 187 186 189 190 192 191 192 188 187 186 183 186 181 184 189 196 192 178 186 187 189 185 187 187 192 194 204 203 194 191 200 211 209 207 210 199 194 202 209 202 196 194 195 200 185 198 205 223 173 159 146 141 159 154 228 259 270 284 292 280 277 283 269 219 206 220 217 193 205 233 245
205 203 197 191 192 192 193 192 191 191 189 188 187 182 183 187 183 181 178 171 163 163 172 175 174 179 182 186 191 195 187 165 180 187 186 183 188 187 194 200 203 197 188 196 204 207 204 205 204 202 200 207 212 202 195 198 200 195 190 201 203 156 133 135 153 139 130 134 318 294 292 297 292 295 289 276 269 262 168 184 182 180 179 199 227
196 197 194 195 194 193 192 192 190 186 181 175 174 180 184 179 176 175 167 162 163 165 165 168 173 177 186 188 184 174 157 160 171 187 181 184 188 194 194 201 198 187 188 204 208 211 206 203 208 205 201 209 214 202 197 199 201 184 206 158 107 104 143 138 119 97 125 213 283 307 297 299 294 300 287 292 303 243 129 200 192 191 201 196 199
194 195 195 195 194 192 191 186 182 179 175 172 171 171 168 169 170 165 161 162 164 165 168 166 166 160 129 106 117 149 149 165 164 170 186 188 193 198 201 201 190 185 194 205 207 204 190 197 209 207 204 212 207 195 198 185 140 173 158 113 114 140 139 113 127 120 31 2 310 285 285 271 280 278 277 278 252 229 229 227 237 230 235 239 232
199 193 193 193 191 190 186 180 175 170 167 165 163 159 164 166 163 164 165 165 166 164 157 138 124 127 133 129 132 153 162 156 171 174 185 199 201 201 204 198 177 200 201 207 186 183 189 198 199 205 203 198 196 180 105 119 184 134 92 132 149 139 127 119 94 69 2 305 274 265 262 255 238 263 253 231 211 224 239 243 254 254 251 262 266
184 194 188 185 184 183 176 172 170 164 161 158 155 158 159 157 157 162 158 153 147 136 123 126 132 134 134 148 135 120 131 146 160 194 199 200 199 200 197 202 197 188 188 188 179 192 182 188 203 169 144 127 105 106 139 153 109 145 172 150 125 135 122 131 126 112 209 239 242 242 250 250 232 240 247 219 230 291 297 301 284 265 260 250 259
176 180 185 183 180 171 167 165 161 155 151 155 157 160 159 160 155 149 132 122 125 128 130 126 125 126 130 134 151 152 149 159 179 144 153 160 185 192 192 182 138 173 171 155 175 178 200 165 107 106 110 113 125 146 146 159 162 127 110 130 161 160 167 145 150 186 227 228 228 234 239 248 251 254 224 183 235 273 286 287 307 304 312 310 327
165 161 162 175 173 166 159 153 147 145 140 131 134 135 133 129 129 125 124 126 124 127 129 132 132 141 150 157 152 149 154 168 155 144 153 160 174 174 176 184 109 106 92 80 70 61 65 71 79 80 103 118 119 139 138 123 105 110 175 195 192 177 176 182 181 206 220 224 230 243 263 266 276 245 212 214 249 271 252 271 290 277 285 297 296
175 171 158 143 140 164 157 150 139 128 128 133 133 130 121 126 133 137 146 145 139 141 142 146 151 153 156 155 152 158 175 174 170 168 171 170 162 163 177 177 171 154 115 92 83 79 86 98 108 123 124 107 114 122 115 153 173 181 199 179 180 172 194 205 220 218 228 216 235 250 285 271 224 216 231 242 255 276 284 283 242 287 295 324 334
104 112 100 102 97 71 79 81 110 113 96 78 51 44 114 135 120 82 32 131 150 153 156 159 160 161 157 160 164 175 183 194 201 182 174 168 163 159 171 184 178 146 124 119 104 105 109 115 134 133 150 152 153 146 158 202 204 204 206 172 159 168 173 189 210 221 208 191 229 227 236 230 237 230 213 267 274 273 319 305 275 246 295 294 271
131 125 123 122 126 121 106 93 111 120 117 108 97 77 46 40 37 112 129 51 63 114 144 158 165 155 155 173 171 175 194 202 170 176 173 170 170 171 172 160 147 125 130 128 126 128 138 143 156 151 150 152 160 172 192 206 213 211 213 190 180 177 188 203 220 226 201 207 221 217 220 216 222 214 214 231 280 291 268 222 269 314 292 293 303
125 114 113 110 113 116 122 123 134 113 113 109 107 105 83 51 43 40 51 77 87 79 76 112 145 154 156 171 205 310 199 152 165 171 164 169 165 139 123 130 126 130 130 125 125 138 150 155 158 164 168 176 177 184 198 197 211 221 225 190 189 202 201 202 219 208 210 222 227 225 220 203 206 207 207 229 240 256 286 287 249 272 266 286 297
117 110 99 98 110 111 118 125 125 113 101 107 107 107 100 94 50 36 39 50 56 59 55 61 139 170 168 156 138 46 153 165 152 141 146 147 145 141 137 136 143 145 152 138 137 158 165 163 165 175 172 173 195 190 181 202 213 219 211 189 210 197 193 215 203 202 214 209 209 203 192 190 203 211 223 236 228 256 278 298 305 322 318 316 287
62 69 88 101 106 123 132 125 126 125 117 108 103 105 110 108 100 82 43 55 66 61 48 33 30 163 163 155 157 156 151 141 139 141 146 148 144 144 146 148 152 156 143 145 159 156 162 157 170 175 181 189 173 177 204 215 231 222 181 196 207 199 194 180 133 122 125 149 132 152 173 185 182 197 240 238 215 264 273 280 299 325 307 303 305
102 111 112 121 129 137 134 128 114 107 106 106 109 111 114 121 131 129 124 120 77 64 56 47 34 59 75 113 119 120 129 139 143 146 147 147 149 149 145 148 152 159 156 161 155 159 156 159 169 179 181 180 175 166 165 173 179 169 160 142 126 125 126 125 113 124 126 133 136 144 151 164 173 196 233 244 245 244 257 266 296 332 320 302 299
103 126 134 136 133 127 118 104 105 110 112 116 120 123 125 133 141 148 152 146 138 123 109 56 36 25 93 115 128 133 141 145 149 153 152 149 141 132 115 113 122 184 202 148 147 146 155 156 169 173 163 147 143 138 138 137 128 123 119 117 116 114 120 119 131 139 136 137 144 182 193 198 216 213 208 251 284 316 296 288 283 274 315 313 314
85 78 81 91 93 96 101 102 109 111 114 114 121 121 128 132 135 132 112 113 122 122 104 73 65 60 73 75 97 124 133 139 142 136 133 132 138 134 130 141 150 164 160 145 139 144 141 149 152 159 147 144 137 134 143 145 144 138 138 133 138 139 134 135 138 144 170 161 184 196 200 258 246 228 223 222 202 204 231 241 292 319 313 305 301
91 89 93 96 102 102 101 116 122 126 126 126 123 118 116 111 111 108 108 116 112 103 108 125 121 92 73 63 72 73 78 89 98 109 126 140 149 134 134 150 151 146 159 156 145 142 144 159 153 150 149 142 147 148 141 135 134 125 128 131 136 137 151 157 166 159 155 183 206 198 187 208 208 219 177 137 225 224 245 329 346 327 321 309 315
101 106 107 105 106 106 112 108 112 120 123 127 128 130 129 127 124 120 121 125 134 131 125 132 128 121 125 120 110 102 98 94 92 87 98 115 96 103 121 131 140 153 167 164 153 151 150 155 155 146 148 139 138 135 124 122 122 117 115 122 132 150 158 156 158 171 188 196 210 205 201 210 176 157 144 154 162 158 319 329 341 331 318 314 312
80 81 91 94 91 104 110 114 117 116 110 112 115 120 122 122 121 123 132 145 140 127 127 131 131 125 124 131 125 131 118 123 138 146 144 136 96 104 122 130 142 154 153 151 156 147 146 154 158 135 135 131 131 131 129 127 118 115 118 120 126 130 128 145 173 199 201 209 226 205 182 142 135 166 182 142 114 276 350 336 329 317 305 299 293
102 105 93 92 90 89 101 105 106 110 117 118 123 122 128 141 147 147 152 149 144 144 141 136 128 131 139 145 143 151 145 146 149 150 151 144 139 116 118 140 153 162 162 162 163 154 151 143 133 126 125 127 130 134 134 134 136 140 135 139 146 161 179 172 172 177 246 272 346 66 130 129 151 193 166 100 79 37 17 336 308 300 288 280 285
78 113 113 115 112 107 104 107 115 126 132 128 149 148 153 150 148 145 143 137 136 137 141 150 150 150 161 158 158 159 147 153 149 153 157 154 152 141 135 152 161 166 160 159 152 140 131 128 129 127 129 132 135 136 141 137 135 128 130 134 134 143 149 145 130 122 118 102 109 101 105 149 174 98 59 347 25 31 2 315 305 298 294 298 303
50 69 117 124 125 123 127 130 131 135 131 137 139 135 140 141 139 137 132 134 135 138 139 138 138 142 138 145 163 148 115 130 135 138 137 143 148 147 155 166 167 154 151 148 146 138 133 128 131 133 132 136 133 130 122 121 126 128 130 133 140 137 117 118 123 123 119 119 115 123 120 121 109 89 76 50 33 13 348 333 312 303 305 312 313
104 82 338 116 131 136 141 133 131 134 146 142 141 133 130 128 131 130 131 132 137 145 147 145 140 137 144 151 161 145 120 136 142 147 151 155 156 161 168 174 168 160 145 141 140 138 136 135 139 142 143 146 147 145 142 145 140 135 134 132 127 116 126 138 132 129 128 123 121 106 100 85 64 49 30 27 17 8 340 323 315 312 310 311 309
98 92 73 50 68 97 113 130 141 151 153 142 131 130 134 134 137 137 136 136 145 151 144 144 143 143 143 160 155 122 153 146 148 158 162 161 163 169 184 178 159 143 136 141 144 139 135 136 139 143 138 140 141 138 138 146 144 144 145 139 135 138 143 147 149 153 141 124 120 108 94 88 84 55 30 359 23 2 337 327 319 316 311 310 310
62 91 83 64 337 354 123 136 144 149 152 152 142 143 146 146 150 147 142 143 147 143 140 143 145 142 148 161 173 177 173 165 165 165 171 168 169 175 181 171 164 155 151 152 153 143 139 140 141 139 139 142 141 139 142 142 140 144 147 141 142 147 159 162 168 164 143 132 141 146 157 157 120 75 341 301 330 336 324 310 309 310 314 313 314
151 134 144 163 194 207 166 157 134 129 144 153 150 143 146 148 155 155 154 148 144 139 139 145 146 151 158 167 173 175 175 177 176 176 170 167 165 173 174 171 165 161 160 155 154 150 148 149 149 150 151 152 150 144 143 148 148 142 139 137 146 158 163 157 149 145 155 145 148 149 142 97 57 264 307 318 310 311 300 302 303 298 293 294 294
167 159 188 195 187 158 95 76 68 77 112 129 126 129 138 144 141 139 137 144 137 137 138 144 147 157 161 169 175 178 179 185 178 176 173 170 170 172 171 169 164 164 164 160 157 155 154 152 152 152 151 150 147 149 153 149 139 133 131 133 136 143 152 158 166 158 152 157 146 133 137 140 167 247 313 326 318 314 315 308 304 304 301 295 291
84 82 71 32 23 99 111 107 115 110 73 27 78 139 144 149 156 157 146 142 136 136 135 143 153 154 159 170 176 176 183 185 175 169 167 165 169 173 172 165 169 169 165 165 165 160 158 156 152 146 148 149 149 152 154 152 143 144 146 153 155 159 163 161 153 153 158 154 148 137 148 158 185 217 266 300 309 322 324 316 314 312 299 297 305
85 85 92 92 55 354 71 103 105 91 107 115 122 245 188 163 159 150 143 141 142 141 143 150 154 158 168 171 174 177 178 173 165 165 165 169 163 169 172 172 167 167 167 173 173 170 166 158 150 151 157 154 154 154 154 153 156 157 161 163 168 164 158 155 152 167 166 147 132 133 132 147 167 214 265 285 306 301 293 288 292 293 297 305 314
81 89 104 104 109 85 21 22 99 136 149 151 139 217 207 160 151 143 140 138 136 139 148 150 158 166 165 167 172 178 179 175 167 168 170 175 176 175 175 169 168 174 176 176 177 174 165 154 152 157 158 154 156 158 158 159 164 168 167 172 170 162 163 163 160 162 160 153 149 151 147 157 161 186 199 248 276 301 307 299 300 303 305 311 309
86 86 70 72 78 80 67 43 33 125 164 164 154 171 158 158 152 142 141 144 148 152 156 157 160 158 167 172 177 175 180 181 174 171 173 183 189 175 178 174 174 178 182 174 170 169 166 158 161 167 163 159 161 163 162 164 166 174 175 170 167 165 163 157 160 176 166 153 146 144 146 156 156 166 255 265 295 293 295 306 309 308 307 302 298